Retour au catalogue

CZ-6A DEB

ActifPO
NORAD 61145·DEBRIS·🇨🇳 China

Lancé Aug 6, 2024 depuis Taiyuan Satellite Launch Center

Loading…

Prochains Passages (prochaines 24 heures)

TLE

FraisSource: Space-Track

Époque: Sep 14, 2026, 22:22 UTC

1 61145U 24140QP  26257.93247910  .00026085  00000-0  29792-2 0  9997
2 61145  88.9292 251.5054 0044790 273.3350  86.2753 14.85218067110506

Suivez CZ-6A DEB en temps réel avec AllMySat

Download on the App Store